Beaver, WV

4:59 AM EST on December 08, 2016 (GMT -0500)
Raleigh County Memorial

Weather History for KBKW - May, 2013

Change the Weather History Date:

Wednesday, May 22, 2013

  Actual Average Record
Temperature  
Mean Temperature 69 °F 61 °F  
Max Temperature 80 °F 71 °F 92 °F (1941)
Min Temperature 58 °F 51 °F 27 °F (2002)
Degree Days  
Heating Degree Days 0 5  
Month to date heating degree days 132 155  
Since 1 July heating degree days 5221 5264  
Cooling Degree Days 4 1  
Month to date cooling degree days 25 16  
Year to date cooling degree days 41 26  
Growing Degree Days 18 (Base 50)    
Moisture  
Dew Point 58 °F    
Average Humidity 72    
Maximum Humidity 93    
Minimum Humidity 51    
Precipitation  
Precipitation 0.71 in 0.16 in 1.85 in (1982)
Month to date precipitation 3.89 3.27  
Year to date precipitation 14.96 15.77  
Snow  
Snow 0.00 in - - ()
Month to date snowfall 0.0  
Since 1 September snowfall 72.0  
Snow Depth 0.00 in    
Sea Level Pressure  
Sea Level Pressure 29.91 in    
Wind  
Wind Speed 5 mph (SSE)    
Max Wind Speed 25 mph    
Max Gust Speed 32 mph    
Visibility 9 miles    
Events Rain    
T = Trace of Precipitation, MM = Missing Value Source: NWS Daily Summary

Daily Weather History Graph

Daily Weather History Graph

Search for Another Location

Airport or City:

Trip Planner

Search our weather history database for the weather conditions in past years. The results will help you decide how hot, cold, wet, or windy it might be!

Date:

Astronomy

May. 22, 2013 Rise Set
Actual Time 6:09 AM EDT 8:33 PM EDT
Civil Twilight 5:39 AM EDT 9:03 PM EDT
Nautical Twilight 5:02 AM EDT 9:40 PM EDT
Astronomical Twilight 4:21 AM EDT 10:21 PM EDT
Moon 5:56 PM EDT (5/22) 4:09 AM EDT (5/22)
Length of Visible Light 15h 24m
Length of Day
14h 24m
Waxing Gibbous, 91% of the Moon is Illuminated
May 22
Waxing Gibbous
May 25
Full
May 31
Last Quarter
Jun 8
New
Jun 16
First Quarter

Hourly Weather History & Observations

Time (EDT) Temp. Heat Index Dew Point Humidity Pressure Visibility Wind Dir Wind Speed Gust Speed Precip Events Conditions
12:51 AM 61.0 °F - 57.0 °F 87% 29.96 in 10.0 mi SE 5.8 mph - N/A   Clear
1:51 AM 63.0 °F - 55.0 °F 75% 29.92 in 10.0 mi SE 4.6 mph - N/A   Clear
2:51 AM 60.1 °F - 55.9 °F 86% 29.90 in 10.0 mi SE 3.5 mph - N/A   Clear
3:51 AM 61.0 °F - 55.0 °F 81% 29.88 in 10.0 mi ESE 4.6 mph - N/A   Clear
4:51 AM 59.0 °F - 55.0 °F 87% 29.89 in 10.0 mi Calm Calm - N/A   Clear
5:51 AM 60.1 °F - 55.0 °F 83% 29.90 in 10.0 mi SE 3.5 mph - N/A   Scattered Clouds
6:51 AM 59.0 °F - 55.0 °F 87% 29.92 in 10.0 mi Calm Calm - N/A   Clear
7:51 AM 63.0 °F - 57.0 °F 81% 29.93 in 10.0 mi SE 5.8 mph - N/A   Scattered Clouds
8:51 AM 69.1 °F - 57.0 °F 65% 29.94 in 10.0 mi SSE 4.6 mph - N/A   Partly Cloudy
9:51 AM 73.9 °F - 57.9 °F 57% 29.94 in 10.0 mi South 5.8 mph - N/A   Partly Cloudy
10:51 AM 75.9 °F - 59.0 °F 56% 29.94 in 10.0 mi SW 10.4 mph - N/A   Scattered Clouds
11:51 AM 77.0 °F - 60.1 °F 56% 29.94 in 10.0 mi WSW 9.2 mph 18.4 mph N/A   Mostly Cloudy
12:51 PM 80.1 °F 81.1 °F 61.0 °F 52% 29.90 in 10.0 mi West 11.5 mph 19.6 mph N/A   Mostly Cloudy
1:51 PM 70.0 °F - 55.0 °F 59% 29.91 in 4.0 mi West 6.9 mph - 0.03 in Rain Light Rain
2:51 PM 75.9 °F - 62.1 °F 62% 29.88 in 10.0 mi ESE 5.8 mph - 0.00 in   Partly Cloudy
3:51 PM 75.0 °F - 61.0 °F 62% 29.86 in 10.0 mi Calm Calm - N/A   Scattered Clouds
4:03 PM 66.2 °F - 57.2 °F 73% 30.00 in 1.5 mi WSW 12.7 mph 26.5 mph 0.00 in Rain Light Rain
4:14 PM 64.4 °F - 57.2 °F 77% 29.98 in 0.5 mi SW 8.1 mph 32.2 mph 0.36 in Rain Heavy Rain
4:22 PM 62.6 °F - 59.0 °F 88% 29.98 in 1.0 mi SE 12.7 mph 17.3 mph 0.52 in Rain Heavy Rain
4:31 PM 62.6 °F - 59.0 °F 88% 29.98 in 3.0 mi SE 11.5 mph - 0.57 in Rain Light Rain
4:51 PM 64.9 °F - 61.0 °F 87% 29.90 in 6.0 mi ESE 8.1 mph - 0.60 in Rain Rain
5:51 PM 64.9 °F - 61.0 °F 87% 29.88 in 10.0 mi SE 3.5 mph - 0.05 in Rain Light Rain
6:51 PM 66.0 °F - 61.0 °F 84% 29.89 in 10.0 mi South 5.8 mph - 0.03 in   Mostly Cloudy
7:51 PM 64.9 °F - 59.0 °F 81% 29.91 in 10.0 mi SSW 11.5 mph - 0.00 in   Mostly Cloudy
8:51 PM 63.0 °F - 60.1 °F 90% 29.88 in 10.0 mi ESE 4.6 mph - 0.00 in   Mostly Cloudy
9:51 PM 64.0 °F - 55.9 °F 75% 29.86 in 10.0 mi SE 8.1 mph - N/A   Partly Cloudy
10:51 PM 64.0 °F - 55.9 °F 75% 29.86 in 10.0 mi SSE 8.1 mph - N/A   Clear
11:51 PM 64.0 °F - 55.9 °F 75% 29.87 in 10.0 mi South 4.6 mph - N/A   Clear